Location: Erp
(42.9417°N, 1.2009°E)
Time: 09:10:31
(UTC+00:00)

Cosmos 2263 - Pass Details

Date: 12 January 2026
Orbit: 830 x 864 km, 70.9° (Epoch: 17 February)

Event Time Altitude Azimuth Distance (km) Brightness Sun altitude
Rises 17:33:59 0° 336° (NNW) 3,427 7.4 -9.4°
Reaches altitude 10° 17:36:28 10° 337° (NNW) 2,482 6.7 -9.8°
Maximum altitude 17:42:11 80° 65° (ENE) 860 4.1 -10.8°
Drops below altitude 10° 17:47:48 10° 153° (SSE) 2,444 6.5 -11.7°
Sets 17:50:13 0° 154° (SSE) 3,370 7.3 -12.2°
